Weather History for Salzburg-Flughafen, Austria

Change the Weather History Date:

Monday, May 13, 2013

  Actual Average Record
Temperature  
Mean Temperature 48 °F -  
Max Temperature 55 °F 67 °F - ()
Min Temperature 41 °F 49 °F - ()
Degree Days  
Heating Degree Days 17    
Moisture  
Dew Point 42 °F    
Average Humidity 81    
Maximum Humidity 100    
Minimum Humidity 50    
Precipitation  
Precipitation 0.04 in 0.18 in - ()
Sea Level Pressure  
Sea Level Pressure 30.11 in    
Wind  
Wind Speed 6 mph ()    
Max Wind Speed 14 mph    
Max Gust Speed -    
Visibility 7.6 miles    
Events Rain    
T = Trace of Precipitation, MM = Missing Value Source: Averaged Metar Reports

Daily Weather History Graph

Daily Weather History Graph

Search for Another Location

Airport:

Trip Planner

Search our weather history database for the weather conditions in past years. The results will help you decide how hot, cold, wet, or windy it might be!

Date:

Astronomy

May. 13, 2013 Rise Set
Actual Time 5:32 AM CEST 8:36 PM CEST
Civil Twilight 4:56 AM CEST 9:13 PM CEST
Nautical Twilight 4:08 AM CEST 10:01 PM CEST
Astronomical Twilight 3:11 AM CEST 10:59 PM CEST
Moon 8:01 AM CEST (5/13) 11:35 PM CEST (5/13)
Length of Visible Light 16h 17m
Length of Day
15h 04m
Waxing Crescent, 10% of the Moon is Illuminated
May 13
Waxing Crescent
May 18
First Quarter
May 25
Full
May 31
Last Quarter
Jun 8
New

Hourly Weather History & Observations

Time (CEST) Temp. Windchill Dew Point Humidity Pressure Visibility Wind Dir Wind Speed Gust Speed Precip Events Conditions
12:20 AM 44.6 °F 40.2 °F 39.2 °F 81% 30.15 in 6.2 mi West 8.1 mph - N/A   Scattered Clouds
12:50 AM 44.6 °F 40.2 °F 39.2 °F 81% 30.15 in 6.2 mi WSW 8.1 mph - N/A   Mostly Cloudy
1:20 AM 44.6 °F 42.2 °F 39.2 °F 81% 30.15 in 6.2 mi WSW 4.6 mph - N/A   Mostly Cloudy
1:50 AM 44.6 °F 40.7 °F 39.2 °F 81% 30.15 in 6.2 mi WSW 6.9 mph - N/A   Scattered Clouds
2:00 AM 44 °F - 39 °F 75% 30.19 in 9 mi WSW 6.7 mph - -  
2:20 AM 42.8 °F - 39.2 °F 87% 30.15 in 6.2 mi Variable 1.2 mph - N/A   Mostly Cloudy
2:50 AM 42.8 °F 40.1 °F 39.2 °F 87% 30.15 in 6.2 mi SW 4.6 mph - N/A   Overcast
3:20 AM 42.8 °F 40.1 °F 41.0 °F 93% 30.15 in 6.2 mi SW 4.6 mph - N/A   Mostly Cloudy
3:50 AM 42.8 °F 41.1 °F 41.0 °F 93% 30.15 in 6.2 mi South 3.5 mph - N/A   Mostly Cloudy
4:20 AM 42.8 °F 40.1 °F 42.8 °F 100% 30.15 in 6.2 mi SSE 4.6 mph - N/A   Mostly Cloudy
4:50 AM 42.8 °F 41.1 °F 42.8 °F 100% 30.12 in 6.2 mi SSE 3.5 mph - N/A   Mostly Cloudy
5:00 AM 43 °F - 42 °F 96% 30.17 in 19 mi SSE 4.5 mph - -   Partly Cloudy
5:20 AM 42.8 °F - 42.8 °F 100% 30.12 in 6.2 mi South 2.3 mph - N/A   Mostly Cloudy
5:50 AM 42.8 °F 40.1 °F 42.8 °F 100% 30.12 in 6.2 mi SE 4.6 mph - N/A   Mostly Cloudy
6:20 AM 44.6 °F 43.1 °F 42.8 °F 93% 30.12 in 6.2 mi SSE 3.5 mph - N/A   Mostly Cloudy
6:50 AM 44.6 °F 40.7 °F 41.0 °F 87% 30.12 in 6.2 mi SSE 6.9 mph - N/A Rain Light Rain Showers
7:20 AM 44.6 °F 42.2 °F 41.0 °F 87% 30.12 in 6.2 mi South 4.6 mph - N/A   Mostly Cloudy
7:50 AM 46.4 °F 43.5 °F 42.8 °F 87% 30.12 in 6.2 mi SSE 5.8 mph - N/A   Mostly Cloudy
8:00 AM 47 °F - 42 °F 79% 30.17 in 19 mi SSE 6.7 mph - - Rain Light Rain Showers
8:20 AM 48.2 °F - 41.0 °F 76% 30.12 in 6.2 mi SSE 5.8 mph - N/A   Mostly Cloudy
8:50 AM 50.0 °F - 42.8 °F 76% 30.12 in 6.2 mi South 4.6 mph - N/A   Mostly Cloudy
9:20 AM 50.0 °F - 41.0 °F 71% 30.12 in 6.2 mi SSE 5.8 mph - N/A   Mostly Cloudy
9:50 AM 50.0 °F - 39.2 °F 66% 30.12 in 6.2 mi WSW 5.8 mph - N/A   Mostly Cloudy
10:20 AM 50.0 °F - 37.4 °F 62% 30.12 in 6.2 mi West 8.1 mph - N/A   Mostly Cloudy
10:50 AM 50.0 °F - 42.8 °F 76% 30.12 in 6.2 mi North 4.6 mph - N/A   Mostly Cloudy
11:00 AM 50 °F - 42 °F 65% 30.16 in 19 mi North 4.5 mph - - Rain Light Rain Showers
11:20 AM 53.6 °F - 39.2 °F 58% 30.12 in 6.2 mi SSW 4.6 mph - N/A   Mostly Cloudy
11:50 AM 51.8 °F - 41.0 °F 67% 30.12 in 6.2 mi WSW 4.6 mph - N/A   Mostly Cloudy
12:20 PM 53.6 °F - 37.4 °F 54% 30.09 in 6.2 mi WSW 5.8 mph - N/A   Mostly Cloudy
12:50 PM 53.6 °F - 35.6 °F 51% 30.09 in 6.2 mi West 6.9 mph - N/A Rain Light Rain Showers
1:20 PM 51.8 °F - 39.2 °F 62% 30.09 in 6.2 mi WNW 13.8 mph - N/A   Mostly Cloudy
1:50 PM 53.6 °F - 39.2 °F 58% 30.09 in 6.2 mi NW 10.4 mph - N/A Rain Light Rain Showers
2:00 PM 53 °F - 40 °F 50% 30.11 in 19 mi NW 11.2 mph - - Rain Light Rain Showers
2:20 PM 51.8 °F - 41.0 °F 67% 30.09 in 6.2 mi NW 9.2 mph - N/A Rain Light Rain
2:50 PM 51.8 °F - 42.8 °F 71% 30.09 in 6.2 mi NNW 8.1 mph - N/A Rain Light Rain
3:20 PM 51.8 °F - 42.8 °F 71% 30.09 in 6.2 mi Variable 2.3 mph - N/A Rain Light Rain
3:50 PM 51.8 °F - 44.6 °F 76% 30.09 in 6.2 mi ENE 3.5 mph - N/A Rain Light Rain
4:20 PM 51.8 °F - 44.6 °F 76% 30.09 in 6.2 mi ENE 3.5 mph - N/A Rain Light Rain
4:50 PM 50.0 °F - 44.6 °F 82% 30.09 in 6.2 mi Variable 2.3 mph - N/A Rain Light Rain
5:00 PM 51 °F - 44 °F 70% 30.10 in 16 mi 2.2 mph - - Rain Light Rain
5:20 PM 50.0 °F - 46.4 °F 87% 30.06 in 6.2 mi WNW 3.5 mph - N/A Rain Light Rain
5:50 PM 50.0 °F - 46.4 °F 87% 30.06 in 6.2 mi SSE 6.9 mph - N/A Rain Light Rain
6:20 PM 50.0 °F - 46.4 °F 87% 30.06 in 6.2 mi SE 4.6 mph - N/A Rain Light Rain
6:50 PM 48.2 °F - 46.4 °F 93% 30.06 in 6.2 mi SSE 8.1 mph - N/A Rain Light Rain
7:20 PM 48.2 °F - 46.4 °F 93% 30.06 in 6.2 mi SSE 8.1 mph - N/A Rain Light Rain
7:50 PM 48.2 °F - 46.4 °F 93% 30.06 in 6.2 mi SSE 9.2 mph - N/A   Mostly Cloudy
8:00 PM 48 °F - 46 °F 91% 30.09 in 12 mi SSE 8.9 mph - - Rain Light Drizzle
8:20 PM 48.2 °F - 46.4 °F 93% 30.06 in 6.2 mi SSE 10.4 mph - N/A   Mostly Cloudy
8:50 PM 48.2 °F - 46.4 °F 93% 30.06 in 6.2 mi SSE 9.2 mph - N/A   Mostly Cloudy
9:20 PM 48.2 °F - 46.4 °F 93% 30.06 in 6.2 mi SSE 10.4 mph - N/A   Mostly Cloudy
10:20 PM 48.2 °F - 46.4 °F 93% 30.06 in 6.2 mi SSE 9.2 mph - N/A   Mostly Cloudy
10:50 PM 48.2 °F - 46.4 °F 93% 30.06 in 6.2 mi SSE 9.2 mph - N/A   Mostly Cloudy
11:00 PM 48 °F - 46 °F 89% 30.09 in 16 mi SSE 8.9 mph - -   Partly Cloudy
11:20 PM 48.2 °F - 46.4 °F 93% 30.06 in 6.2 mi SSE 10.4 mph - N/A   Mostly Cloudy
11:50 PM 48.2 °F - 46.4 °F 93% 30.06 in 6.2 mi SSE 9.2 mph - N/A   Overcast